Location: Newark
(39.9581°N, 97.2014°W)
Time: 01:00:04
(UTC+00:00)

Envisat - Pass Details

Date: 24 January 2020
Orbit: 764 x 766 km, 98.1° (Epoch: 20 February)

Event Time Altitude Azimuth Distance (km) Brightness Sun altitude
Rises 11:51:44 0° 33° (NNE) 3,238 6.6 -21.4°
Reaches altitude 10° 11:55:08 10° 57° (ENE) 2,305 6.1 -20.8°
Maximum altitude 11:57:55 15° 90° (E) 1,991 6.2 -20.3°
Drops below altitude 10° 12:00:41 10° 124° (SE) 2,296 6.4 -19.7°
Sets 12:04:02 0° 148° (SSE) 3,216 6.9 -19.1°
